User: anonymous   Login
Location: Palomar Mountain Lodge
(33.3110°N, 116.8495°W)
Time: 14:29:34
(UTC-08:00)
Language:

Cosmos 2184 Rocket - Orbit

View from above orbital plane
View from above orbital plane
View from above satellite
View from above satellite

Ground track
Ground track

The orbit data is extracted from the following two-line orbital elements,

1 21938U 92020B   17326.88261378 +.00000050 +00000-0 +35737-4 0  9992
2 21938 082.9319 242.6333 0030447 108.2044 318.8315 13.75251739284801
Epoch (UTC): 22 November 2017 21:10:57
Eccentricity: 0.0030447
inclination: 82.9319°
perigee height: 958 km
apogee height: 1003 km
right ascension of ascending node: 242.6333°
argument of perigee: 108.2044°
revolutions per day: 13.75251739
mean anomaly at epoch: 318.8315°
orbit number at epoch: 28480

The dashed part of the orbit path shows where the satellite is in the earth's shadow,  

DLR